This is the latest recevied weather packets stored in our database for station/object K3PPP. If no packets are shown the sender has not sent any weather packets the latest 10 day(s).
| Time | Temp. | Humidity | Pressure | Rain* | Wind** | Luminosity | Snow |
|---|---|---|---|---|---|---|---|
| 1777999268 | 21.67° C | 47% | 1011.1 hPa | 0 mm | - | 743 W/m² | - |
| 1777998966 | 20.56° C | 49% | 1011 hPa | 0 mm | - | 752 W/m² | - |
| 1777998663 | 21.11° C | 48% | 1011.2 hPa | 0 mm | - | 728 W/m² | - |
| 1777998361 | 21.11° C | 47% | 1011.2 hPa | 0 mm | - | 759 W/m² | - |
| 1777998058 | 21.11° C | 49% | 1011 hPa | 0 mm | - | 705 W/m² | - |
| 1777997755 | 20.56° C | 50% | 1011 hPa | 0 mm | - | 734 W/m² | - |
| 1777997452 | 20.56° C | 47% | 1011.1 hPa | 0 mm | - | 731 W/m² | - |
| 1777997150 | 20° C | 50% | 1011.1 hPa | 0 mm | - | 677 W/m² | - |
| 1777996847 | 20.56° C | 48% | 1011.1 hPa | 0 mm | - | 707 W/m² | - |
| 1777996543 | 20° C | 50% | 1011.4 hPa | 0 mm | - | 676 W/m² | - |
| 1777996240 | 20° C | 52% | 1011.4 hPa | 0 mm | - | 693 W/m² | - |
| 1777995936 | 19.44° C | 51% | 1011.4 hPa | 0 mm | - | 710 W/m² | - |
| 1777995632 | 20° C | 51% | 1011.3 hPa | 0 mm | - | 710 W/m² | - |
| 1777995330 | 19.44° C | 52% | 1011.8 hPa | 0 mm | - | 689 W/m² | - |
| 1777995027 | 20° C | 52% | 1011.8 hPa | 0 mm | - | 189 W/m² | - |
| 1777994723 | 19.44° C | 53% | 1011.6 hPa | 0 mm | - | 738 W/m² | - |
| 1777994419 | 19.44° C | 54% | 1011.8 hPa | 0 mm | - | 729 W/m² | - |
| 1777994114 | 18.89° C | 53% | 1011.9 hPa | 0 mm | - | 699 W/m² | - |
| 1777993812 | 19.44° C | 53% | 1012.1 hPa | 0 mm | - | 158 W/m² | - |
| 1777993508 | 19.44° C | 53% | 1012.1 hPa | 0 mm | - | 566 W/m² | - |
| 1777993204 | 18.89° C | 56% | 1011.8 hPa | 0 mm | - | 621 W/m² | - |
| 1777992901 | 18.33° C | 56% | 1011.7 hPa | 0 mm | - | 246 W/m² | - |
| 1777992599 | 18.33° C | 56% | 1012.1 hPa | 0 mm | - | 482 W/m² | - |
| 1777992296 | 18.33° C | 56% | 1011.9 hPa | 0 mm | - | 194 W/m² | - |
| 1777991994 | 18.33° C | 59% | 1012.2 hPa | 0 mm | - | 176 W/m² | - |
* Rain latest hour (hover to see other rain measurements)
** Current wind speed in m/s (hover to see current wind gust speed)